Tracking 30061 objects as of 8-Dec-2024
HD Live streaming from Space Station
objects crossing your sky now

BPA 3/SL-24 R/B

Track BPA 3/SL-24 R/B now!
10-day predictions


NORAD ID: 39448
Int'l Code: 2013-066AJ
Perigee: 597.5 km
Apogee: 1,612.7 km
Inclination: 97.7 °
Period: 107.2 minutes
Semi major axis: 7476 km
RCS: Unknown
Launch date: November 21, 2013
Source: Commonwealth of Independent States (former USSR) (CIS)
Launch site: Orenburg, Russia (OREN)

Note: This is a ROCKET BODY
Your satellite tracking list
Your tracking list is empty




NASA's NSSDC Master Catalog

Two Line Element Set (TLE):
1 39448U 13066AJ  24342.77783423  .00000437  00000-0  20026-3 0  9997
2 39448  97.7105 265.1098 0678942  44.6329 320.7455 13.43041254541197
Source of the keplerian elements: AFSPC